Other Public Products
Issued by NWS Charleston, SC

Current Version | Previous Version | Graphics & Text | Print | Product List | Glossary On
Versions: 1 2 3 4 5 6 7 8 9 10 11 12 13 14 15 16 17 18 19 20 21 22 23 24 25 26 27 28 29 30 31 32 33 34 35 36 37 38 39 40 41 42 43 44 45 46 47 48 49 50
914
FPUS82 KCHS 272212
OPUCHS

TEST...KCHS/KSAV Gateway Observations...TEST
National Weather Service Charleston SC
600 PM EDT TUE JUN 27 2017

NOTE: "fair" indicates few or no clouds below 12,000 feet with no
significant weather and/or obstructions to visibility.

SCZ050-WAZ558-NCZ071-TXZ119-213-PAZ071-DCZ001-FLZ074-172-MI076-
NYZ176-178-MAZ016-IL014-TNZ027-NJZ106-GAZ044-MD014-272300-

...Gateway Observations for Charleston International...

CITY           SKY/WX    TMP DP  RH WIND       PRES   REMARKS
Chas Airport   CLOUDY    83  60  45 SE10      30.00F
Seattle        FAIR      66  50  56 SW6       30.03F
Charlotte      MOSUNNY   81  52  36 N8        30.06F
Dallas DFW     TSTM      75  70  83 S25G37    29.95R
Dallas Love    TSTM      74  69  85 SW8       29.97F
Philladelphia  MOSUNNY   79  48  33 W14G23    29.95S
Wash National  CLOUDY    79  50  36 W7        29.98F
Baltimore      PTSUNNY   79  47  32 NW12G18   29.97S
Miami          CLOUDY    83  73  72 SW6       29.95F
Detroit        PTSUNNY   74  45  35 W14       30.03F
Newark         PTSUNNY   78  47  33 W21       29.92S
Laguardia      PTSUNNY   75  57  53 S10G20    29.91F
J F K          MOSUNNY   73  58  59 S13       29.94F
Boston Logan   PTSUNNY   70  54  56 NW8       29.90S
Ft. Lauderdale CLOUDY    85  76  74 S8        29.94F HX  94
Chicago O`Hare PTSUNNY   77  44  30 W5        30.05F
Chicago Midway MOSUNNY   76  47  35 N5        30.05F
Houston Bush   PTSUNNY   83  73  72 SE12      29.95F
Houston Hobby  LGT RAIN  82  73  74 E6        29.94F
Nashville      PTSUNNY   81  52  36 N6        30.08F
Atlanta        MOSUNNY   84  53  34 NW10      30.05S

$$

GAZ044-118-TXZ119-213-NCZ071-DCZ001-MDZ014-506-PAZ021-071-NJZ106-
NYZ176-178-MAZ106-OHZ011-021-055-MIZ076-KYZ091-ILZ014-INZ047-
MNZ060-ONZ431-272300-

...Gateway Observations for Savannah International...

CITY           SKY/WX    TMP DP  RH WIND       PRES   REMARKS
Savannah Arpt  PTSUNNY   81  68  64 SE12      30.01F
Atlanta        MOSUNNY   84  53  34 NW10      30.05S
Charlotte      MOSUNNY   81  52  36 N8        30.06F
Dallas DFW     TSTM      75  70  83 S25G37    29.95R
Houston Bush   PTSUNNY   83  73  72 SE12      29.95F
Wash National  CLOUDY    79  50  36 W7        29.98F
Wash Dulles    MOSUNNY   79  45  29 W12G18    29.99S
Baltimore      PTSUNNY   79  47  32 NW12G18   29.97S
Philadelphia   MOSUNNY   79  48  33 W14G23    29.95S
Newark         PTSUNNY   78  47  33 W21       29.92S
Laguardia      PTSUNNY   75  57  53 S10G20    29.91F
J F K          MOSUNNY   73  58  59 S13       29.94F
Boston         PTSUNNY   70  54  56 NW8       29.90S
Pittsburg      PTSUNNY   67  47  48 NW10      30.07F
Akron          MOSUNNY   71  44  37 W10       30.08S
Cleveland      MOSUNNY   71  39  31 NW12      30.09S
Cincinnati     PTSUNNY   74  49  41 N8        30.11F
Columbus       SUNNY     71  47  41 W9        30.09S
Detroit        PTSUNNY   74  45  35 W14       30.03F
Chicago O`Hare PTSUNNY   77  44  30 W5        30.05F
Minneapolis    CLOUDY    77  40  26 S18G24    29.91F
Indianapolis   MOSUNNY   73  47  39 VRB3      30.10F
Toronto Canada PTSUNNY   68  46  45 NW18G25   29.95R

$$




USA.gov is the U.S. government's official web portal to all federal, state and local government web resources and services.